Погода в Пирмазенсе

Германия     49°12′18″N   7°36′14″E
темп.,
°C
ветер,
м/с
пор.,
м/с
влажн.,
%
обл.,
%
осадки,
мм/ч
давл.,
гПа
погр.,
м
17 апреля, сб
сб1723:00+1всв269176 0.0 1026147
02:00+1ссв229487 0.0 102529
05:000ссв2294100 0.0 102428
08:00+3ссв238182 0.0 1024152
11:00+8ссв45555 0.0 10231288
14:00+10ссв56395 0.0 10211629
17:00+10св5656100 0.0 10201414
20:00+5всв4787100 0.1 1021580
18 апреля, вс
вс1823:00+3св2494100 0.0 1022120
02:00+4с1191100 0.1 102128
05:00+4с1191100 0.1 102016
08:00+5ссв258767 0.1 1021396
11:00+5св3687100 0.0 1021741
14:00+8ссв3375100 0.1 1021846
17:00+7св458699 0.4 1020667
20:00+6в228896 0.4 102152
19 апреля, пн
пн1923:00+6ююв0091100 0.2 102116
02:00+5зсз0192100 0.3 102116
05:00+5зюз119489 0.0 102013
08:00+5всв009364 0.1 102065
11:00+11в116483 0.1 10191078
14:00+10ссз2266100 0.4 1018704
17:00+12св11636 0.4 1017934
20:00+8с118123 0.9 101711
20 апреля, вт
вт2023:00+6всв118999 0.0 101810
02:00+4св11906 0.0 101810
05:00+4ссв119179 0.0 101710
08:00+6св118630 0.0 101746
11:00+10в1271100 0.0 1017572
14:00+15сз025237 0.1 10151496
17:00+14св11565 0.9 10141286
20:00+10св11762 2.1 101510
21 апреля, ср
ср2123:00+7в11845 0.1 101610
02:00+6ссв11865 0.1 101710
05:00+5ссв11875 0.0 101710
08:00+7ссз00845 0.0 101839
11:00+13ссз226838 0.3 1018583
14:00+13ссв347177 2.8 1017991
17:00+12с4676100 1.8 1018899
20:00+9с4107986 1.9 1020444